Temperature
14 15 15 15 15 15 15 15 16 16 16 15 15 15 15 15 15 15 14 15 14 14 14 14 14 14 14 14 14 14 14 13 13 14 14 14 14 15 15 15 15 15 15
15 15 15 15 15 15 15 15 16 16 16 15 15 15 15 15 15 15 14 14 14 14 14 14 14 14 14 14 14 14 13 13 13 13 14 14 14 14 14 15 15 15 15
15 15 15 15 15 15 15 15 15 15 15 15 15 15 15 15 15 15 14 14 14 14 14 14 14 13 13 13 13 13 13 13 13 13 13 13 14 14 14 14 15 15 15
15 15 15 15 15 15 15 15 16 15 15 15 15 15 15 15 15 14 14 14 14 14 14 14 14 13 13 13 13 13 13 13 13 13 13 13 13 13 14 14 14 15 15
14 14 15 15 15 15 15 15 15 15 15 15 15 15 15 15 15 14 14 14 14 14 14 14 14 14 14 14 13 13 13 13 13 13 13 13 13 13 13 14 14 14 14
13 14 14 14 14 14 14 15 15 15 15 15 15 15 15 14 15 15 15 14 14 14 14 14 14 14 14 14 14 14 13 13 13 13 13 13 13 13 13 13 13 13 13
12 13 13 13 13 14 14 14 14 14 14 14 14 14 14 14 14 14 14 14 14 14 14 14 14 14 14 13 13 14 13 13 13 13 13 13 13 13 13 13 13 13 13
12 12 12 12 12 13 13 13 13 13 13 13 13 13 13 14 14 14 14 14 14 14 14 14 14 14 13 14 13 13 13 13 13 13 13 13 12 12 12 12 12 12 12
11 11 11 11 12 12 12 12 12 12 12 12 12 13 13 13 13 13 13 13 13 13 13 13 13 14 14 14 14 13 13 13 13 13 13 13 13 12 12 12 12 12 12
11 11 11 11 12 12 12 12 12 12 12 12 12 12 12 12 12 13 13 13 13 13 13 13 13 13 14 14 14 13 13 13 13 13 13 13 13 12 12 12 12 12 12
11 11 11 11 11 11 11 11 11 11 11 11 11 11 12 12 12 12 12 12 12 12 12 12 13 13 13 14 13 13 13 13 13 13 13 13 13 13 13 12 12 12 12
11 11 11 11 11 11 11 11 11 11 11 11 11 11 11 11 12 12 12 12 12 12 12 12 12 13 13 13 13 13 13 13 13 13 13 13 13 13 12 12 12 12 12
11 11 11 11 11 11 11 11 11 11 11 11 11 10 10 11 11 11 11 11 11 11 11 12 12 12 12 12 13 13 13 13 13 12 12 12 12 12 12 12 12 12 12
12 11 11 11 11 11 11 11 10 10 10 10 10 10 10 10 10 10 10 10 11 11 11 11 11 11 11 12 12 12 12 12 12 12 12 12 12 11 11 11 11 11 11
12 12 11 11 11 10 10 10 10 10 10 10 10 10 10 10 10 10 10 10 10 10 10 10 10 11 11 11 11 11 11 11 11 11 11 11 11 11 11 11 11 11 10
12 12 11 11 11 10 10 10 10 10 10 10 10 10 10 10 10 10 10 10 10 10 10 10 10 10 10 10 10 10 10 10 11 10 10 10 10 10 10 10 10 10 10
12 12 11 11 11 10 10 10 10 10 10 10 10 10 10 10 10 9 9 10 10 10 10 9 9 9 9 9 9 10 10 10 10 10 10 10 10 10 10 9 9 9 9
12 12 11 11 11 10 10 10 10 10 9 9 9 10 9 9 9 9 9 9 9 9 9 9 9 9 9 9 9 9 9 9 9 9 9 9 9 9 9 9 9 9 9
12 12 11 11 11 10 10 10 10 10 10 9 9 9 9 9 9 9 9 9 8 8 8 8 8 8 8 8 8 8 8 8 8 8 8 8 8 8 8 8 8 8 8
12 12 11 11 11 11 10 10 10 10 10 10 9 9 9 9 9 8 8 8 8 8 8 8 8 8 8 8 8 8 8 8 8 8 8 8 8 8 7 7 7 7 7
12 12 12 11 11 11 10 10 10 10 10 9 9 9 9 8 8 8 8 7 7 7 7 7 8 8 8 8 8 8 8 8 8 7 7 7 7 7 7 7 7 7 6
13 12 11 11 11 11 10 10 10 10 9 9 9 9 8 8 8 8 7 7 7 7 7 7 8 8 8 8 8 8 7 7 7 7 7 7 6 6 6 6 6 6 6
13 12 11 11 11 11 11 10 10 10 9 9 9 9 8 8 8 8 8 7 7 7 7 7 8 8 8 8 8 7 7 7 7 7 7 6 6 6 5 5 5 5 5
13 12 12 11 11 11 11 10 10 10 9 9 9 8 8 8 8 8 8 8 8 8 8 8 8 8 8 8 7 7 7 7 7 7 6 6 6 5 5 5 5 5 5
14 13 12 12 11 11 11 10 10 10 10 9 9 8 8 8 8 8 8 8 8 8 8 8 8 8 8 8 8 8 8 7 7 7 6 6 6 5 5 5 5 5 5
14 13 13 12 12 11 11 11 10 10 10 9 9 9 8 8 8 8 8 9 9 8 8 8 8 8 8 8 8 8 8 7 7 7 6 6 6 6 5 5 5 5 5
Wind_Speed
3 3 3 3 4 4 5 6 6 5 6 6 5 5 5 5 5 4 4 4 5 5 6 7 8 8 8 8 8 8 9 9 10 7 5 4 5 7 6 10 12 13 14
1 1 2 3 4 5 6 6 6 6 5 5 6 5 4 4 4 4 4 4 4 5 5 6 7 6 8 8 8 9 9 10 10 11 7 6 8 8 7 8 9 11 12
2 2 2 2 3 3 3 3 3 5 5 5 5 5 5 5 5 5 5 5 5 5 5 5 5 6 7 7 8 8 8 9 9 9 8 5 5 5 6 7 9 8 11
5 4 4 3 3 2 2 1 2 2 3 5 5 5 6 6 6 6 6 6 5 5 5 5 5 5 6 5 6 7 7 8 8 8 7 5 5 4 5 7 7 8 8
8 7 7 6 5 4 3 1 0 1 2 4 4 5 6 6 6 7 7 7 7 6 6 6 5 3 5 5 5 5 5 5 5 6 6 5 5 4 5 6 7 6 8
10 10 9 8 7 5 4 3 1 0 1 2 3 4 5 4 2 4 8 8 8 7 7 6 5 6 7 7 6 6 6 5 4 4 4 5 6 6 5 5 5 5 5
11 11 10 9 8 7 6 5 4 3 2 1 1 1 2 2 5 5 9 9 9 8 7 6 5 4 5 6 6 8 7 5 4 4 4 4 4 5 5 6 5 4 3
12 12 11 10 10 9 8 8 7 6 6 5 5 4 4 7 9 7 6 9 8 7 7 7 6 7 5 4 4 4 3 2 2 4 3 2 1 2 4 4 4 2 1
12 12 11 11 10 10 10 9 8 7 7 7 7 7 7 8 13 11 8 5 5 5 5 5 6 6 4 2 6 5 4 2 2 2 3 2 3 3 3 3 4 3 2
11 11 10 10 10 10 10 9 8 7 7 7 7 8 8 9 13 14 12 3 3 2 3 3 0 3 3 3 6 5 5 2 2 3 4 5 5 6 7 5 4 4 2
8 9 9 9 9 9 8 8 8 7 7 7 7 7 8 9 11 14 14 6 4 2 1 1 0 2 3 4 7 5 2 3 2 2 2 2 2 2 4 5 4 4 4
6 7 8 8 8 7 8 8 8 7 7 7 7 7 7 7 9 11 12 10 9 3 2 2 2 3 2 1 2 2 1 2 2 1 1 1 1 1 0 1 2 3 3
5 5 6 6 7 7 8 8 7 7 7 7 7 7 7 7 7 8 8 8 8 5 4 5 5 3 1 2 5 2 2 1 1 1 1 2 2 1 1 1 1 1 1
4 5 5 6 6 7 6 6 7 7 7 7 7 7 7 7 8 9 7 6 5 4 4 4 4 4 4 5 3 3 3 3 2 2 2 2 2 1 1 1 1 0 1
4 4 5 6 5 5 6 5 6 7 7 6 6 6 7 7 9 11 8 7 6 5 4 4 4 4 4 5 5 5 4 3 3 3 2 2 2 2 2 2 1 2 2
4 4 4 5 5 5 5 6 5 5 7 9 10 9 6 8 9 10 12 12 10 8 6 7 7 6 6 6 5 5 5 5 4 4 3 3 2 2 2 2 1 1 2
3 3 4 4 4 5 5 5 5 5 5 8 12 13 12 11 11 11 10 12 13 11 9 8 8 7 7 6 6 6 6 6 5 5 4 4 3 3 2 2 2 2 2
2 3 3 4 4 5 5 5 5 5 5 6 8 11 11 12 13 12 10 8 10 10 9 8 8 7 7 7 7 6 6 6 6 5 5 5 4 3 3 3 3 4 4
2 3 3 3 3 4 4 4 5 5 5 5 5 6 7 6 9 11 10 9 9 8 8 8 8 7 7 7 6 6 6 6 6 6 6 6 5 5 4 4 4 4 4
3 3 2 2 3 3 3 3 4 4 5 5 5 6 5 6 7 8 8 8 8 7 7 7 7 7 7 6 6 6 6 6 6 6 5 5 5 5 5 5 4 4 4
4 4 4 2 2 2 3 3 3 3 4 4 5 5 6 5 6 7 7 7 7 6 6 6 6 6 6 6 6 6 6 6 6 5 5 5 5 5 5 5 5 5 5
3 4 3 2 2 2 2 2 2 3 3 4 4 4 3 4 5 5 5 5 5 5 5 5 5 5 5 6 6 5 5 5 6 6 5 5 5 5 5 5 5 5 5
4 3 3 3 2 3 2 2 1 1 2 2 2 2 3 3 3 4 4 4 4 5 5 5 4 4 5 6 6 5 6 6 5 5 5 5 5 5 4 5 5 6 6
4 4 4 3 3 3 3 2 2 1 1 1 2 2 2 2 2 3 3 3 4 4 5 5 5 6 6 6 6 7 8 8 7 5 5 5 5 5 5 5 5 6 5
5 5 4 4 4 4 3 3 3 3 2 2 1 2 2 2 2 2 2 2 3 4 4 4 4 5 6 7 8 8 9 9 9 8 5 4 5 5 5 5 5 5 5
6 6 5 5 5 4 4 4 4 3 3 2 2 2 2 2 2 2 1 1 2 3 3 4 4 5 5 6 8 9 8 8 9 9 7 5 6 6 6 5 6 6 6
Wind_Direction
98 114 138 177 207 216 220 216 203 191 188 184 186 190 180 180 181 188 214 210 226 230 232 239 245 243 239 236 233 232 228 228 241 242 227 246 236 236 204 221 223 209 207
71 154 171 186 205 208 206 202 193 186 186 187 179 190 181 186 193 202 209 217 229 240 240 243 248 247 246 242 235 231 230 227 234 244 232 226 237 245 239 224 222 222 223
39 115 133 148 163 172 171 174 187 185 185 193 197 203 198 204 209 216 222 226 231 242 248 251 255 253 254 249 244 241 236 232 230 239 238 220 228 234 236 235 229 226 229
58 68 69 68 67 80 92 129 174 196 204 211 214 222 220 220 226 228 231 236 239 240 244 249 255 259 263 266 259 255 247 240 232 231 233 219 211 216 225 229 227 218 223
56 55 51 53 51 49 54 52 131 237 244 241 237 238 235 236 238 242 240 240 240 238 238 239 244 290 330 301 293 288 272 254 241 232 229 217 204 190 213 224 231 224 225
53 50 47 50 49 46 46 41 45 50 251 243 242 243 245 250 349 298 268 247 242 237 236 237 224 224 226 232 261 287 298 287 275 248 234 229 222 211 207 212 223 219 222
54 53 50 53 54 52 55 57 53 55 55 41 351 293 276 0 358 291 262 261 248 245 243 237 227 238 242 244 212 221 236 237 267 285 263 244 230 209 198 205 212 221 219
53 52 51 53 55 56 57 56 53 54 55 46 38 35 39 31 9 340 294 255 248 242 241 247 240 241 235 274 264 251 259 235 233 261 279 277 224 190 198 198 188 182 130
50 50 51 53 53 53 54 52 50 54 56 53 47 42 40 31 17 4 328 265 251 243 239 245 255 258 106 293 273 267 261 249 185 248 330 22 96 128 150 160 164 173 194
47 49 50 49 48 48 48 46 48 53 54 59 54 44 37 30 21 13 351 323 286 256 235 229 107 321 30 260 260 264 265 256 231 205 210 205 208 192 195 215 202 202 204
48 49 48 47 46 43 43 42 43 47 48 46 48 43 36 26 20 18 8 3 349 317 266 244 103 52 319 275 269 274 320 323 272 255 239 212 203 205 211 229 233 233 236
48 47 46 43 39 38 40 39 38 36 41 39 36 35 28 25 19 13 13 13 351 352 357 353 43 44 15 326 272 47 61 260 264 255 211 134 113 108 139 221 235 235 243
48 44 42 46 45 39 39 40 39 37 37 34 29 24 19 17 17 12 15 17 1 10 36 38 36 30 165 110 80 86 187 190 176 157 97 83 69 75 93 111 144 180 176
42 40 41 45 53 55 49 46 45 38 35 31 25 18 13 17 15 7 5 16 17 32 52 69 84 67 74 75 94 87 73 64 61 78 85 92 102 101 78 48 51 296 213
43 50 51 55 58 64 67 51 48 52 32 16 13 9 10 14 10 4 11 19 18 18 22 53 57 64 70 72 70 65 62 70 70 72 79 83 85 84 75 54 24 357 349
42 49 51 56 61 64 79 96 79 53 42 34 25 14 40 33 19 34 38 35 27 18 47 59 55 54 54 54 55 58 54 52 53 54 57 56 54 57 61 63 30 348 329
53 61 62 55 62 66 67 71 92 112 106 67 46 40 41 40 42 39 40 46 38 39 56 53 48 45 46 46 44 47 45 39 39 45 45 43 40 38 38 34 17 355 336
86 78 73 72 68 70 72 69 66 69 76 76 70 53 45 47 43 33 26 50 52 48 49 48 46 43 42 41 40 40 39 37 35 38 38 33 28 27 26 16 11 3 347
117 102 90 87 87 83 83 81 78 75 70 61 61 66 54 61 61 43 37 52 53 49 46 44 40 38 37 37 35 35 36 34 29 27 27 20 15 13 14 10 7 7 344
118 87 90 117 112 101 94 87 81 77 73 65 52 38 39 45 47 46 45 47 49 47 43 41 37 33 30 29 26 25 31 32 25 23 19 16 13 11 10 5 358 353 353
142 141 166 151 109 104 98 89 83 79 75 73 65 44 18 51 53 49 46 42 40 39 37 37 35 29 26 24 23 22 25 24 19 14 13 11 8 6 4 2 358 356 353
159 156 157 131 130 133 118 106 89 83 84 88 94 87 52 54 60 56 51 47 45 42 37 36 38 33 24 21 19 18 19 19 12 5 1 1 3 2 1 5 5 4 5
177 170 170 163 161 153 180 154 137 109 100 96 94 86 72 65 66 58 52 48 44 41 40 42 45 38 31 28 22 15 10 8 360 353 351 358 4 7 5 9 12 14 17
192 192 194 188 188 195 194 187 182 168 143 129 125 117 102 91 77 64 54 51 51 52 49 47 45 39 34 28 24 24 18 2 350 354 0 0 5 8 11 14 16 17 18
207 203 205 206 201 203 205 205 206 201 197 196 179 160 149 135 113 92 70 63 61 62 58 49 43 37 33 34 32 28 19 12 10 359 7 20 25 24 24 26 27 27 27
215 211 209 208 209 211 213 215 215 213 212 205 198 190 182 168 149 136 120 97 83 79 69 59 49 41 33 37 37 29 27 26 23 10 15 39 41 36 33 42 43 42 43
Height
1499 1501 1503 1505 1507 1510 1512 1514 1517 1518 1519 1520 1521 1522 1522 1522 1521 1521 1522 1521 1521 1520 1519 1518 1518 1518 1517 1518 1518 1519 1520 1522 1522 1523 1525 1528 1530 1532 1533 1534 1536 1537 1538
1502 1503 1505 1507 1509 1510 1512 1514 1516 1517 1518 1519 1520 1521 1521 1520 1520 1521 1521 1520 1519 1519 1518 1517 1516 1515 1515 1514 1514 1515 1515 1516 1517 1518 1520 1522 1525 1527 1529 1530 1532 1533 1535
1504 1505 1507 1508 1510 1511 1512 1514 1515 1516 1517 1518 1518 1519 1519 1519 1519 1520 1520 1519 1518 1518 1517 1516 1515 1514 1513 1512 1511 1511 1511 1512 1512 1513 1514 1517 1519 1521 1523 1525 1527 1528 1530
1505 1506 1507 1508 1509 1510 1511 1513 1513 1514 1516 1516 1517 1518 1518 1518 1518 1518 1518 1518 1517 1517 1516 1515 1514 1513 1512 1511 1509 1509 1508 1508 1508 1509 1510 1511 1513 1515 1517 1520 1522 1523 1525
1507 1507 1508 1508 1509 1509 1510 1511 1512 1513 1514 1514 1515 1515 1516 1516 1516 1516 1516 1516 1516 1515 1515 1514 1513 1512 1510 1509 1508 1507 1506 1505 1505 1505 1506 1507 1508 1510 1512 1514 1516 1518 1520
1508 1508 1508 1508 1509 1509 1509 1510 1510 1511 1511 1512 1512 1512 1513 1513 1512 1512 1512 1513 1513 1513 1513 1513 1512 1510 1509 1508 1506 1505 1505 1504 1503 1503 1503 1503 1504 1505 1507 1509 1511 1513 1514
1511 1510 1509 1509 1509 1509 1509 1509 1509 1509 1509 1509 1509 1509 1509 1509 1508 1508 1509 1509 1510 1511 1511 1511 1510 1509 1508 1508 1506 1504 1504 1502 1502 1502 1501 1501 1501 1501 1502 1504 1505 1507 1509
1515 1513 1512 1512 1511 1510 1510 1509 1509 1508 1507 1507 1506 1506 1505 1505 1505 1505 1505 1506 1507 1507 1508 1508 1508 1508 1507 1507 1507 1506 1505 1503 1502 1501 1501 1500 1500 1500 1500 1501 1502 1504 1505
1519 1517 1516 1515 1514 1513 1511 1510 1509 1508 1507 1506 1505 1504 1504 1503 1502 1502 1502 1502 1503 1503 1504 1504 1505 1506 1504 1504 1504 1504 1503 1502 1501 1500 1500 1499 1499 1499 1499 1499 1500 1501 1502
1522 1521 1519 1518 1516 1515 1513 1512 1511 1510 1508 1507 1506 1505 1503 1502 1501 1500 1499 1500 1500 1500 1500 1501 1501 1502 1501 1502 1502 1503 1502 1502 1501 1500 1499 1499 1498 1498 1498 1499 1499 1500 1501
1526 1524 1522 1521 1519 1517 1516 1514 1512 1511 1510 1508 1507 1505 1504 1503 1501 1499 1498 1497 1497 1497 1497 1498 1498 1498 1499 1499 1500 1500 1500 1500 1500 1499 1499 1498 1498 1498 1498 1498 1498 1499 1500
1528 1526 1524 1523 1521 1519 1517 1516 1514 1512 1511 1509 1508 1507 1505 1503 1501 1500 1498 1497 1496 1496 1495 1495 1495 1495 1496 1497 1497 1498 1498 1498 1498 1498 1498 1497 1497 1497 1497 1497 1497 1497 1498
1530 1528 1527 1525 1523 1521 1519 1517 1516 1514 1512 1511 1510 1508 1507 1505 1503 1500 1498 1497 1495 1495 1494 1493 1493 1494 1494 1495 1496 1496 1496 1497 1497 1497 1497 1497 1496 1496 1496 1496 1496 1496 1496
1532 1530 1529 1527 1525 1523 1521 1519 1518 1516 1514 1513 1511 1510 1508 1507 1504 1501 1499 1498 1496 1495 1494 1493 1493 1493 1494 1494 1495 1495 1496 1496 1496 1496 1496 1496 1496 1496 1496 1496 1496 1496 1496
1534 1532 1531 1529 1527 1525 1523 1522 1520 1519 1517 1516 1514 1512 1510 1508 1506 1503 1501 1499 1497 1496 1495 1494 1494 1494 1495 1495 1495 1495 1495 1496 1496 1496 1496 1496 1495 1495 1495 1495 1495 1495 1495
1536 1534 1532 1531 1529 1527 1526 1525 1523 1522 1520 1518 1517 1515 1513 1511 1508 1506 1504 1502 1500 1498 1498 1497 1496 1496 1496 1496 1496 1496 1496 1496 1496 1496 1496 1496 1496 1496 1495 1495 1494 1494 1494
1536 1535 1533 1532 1531 1529 1528 1528 1526 1525 1523 1521 1520 1518 1515 1513 1511 1509 1507 1505 1503 1502 1500 1500 1499 1499 1499 1498 1498 1498 1498 1497 1497 1497 1497 1496 1496 1496 1495 1495 1494 1494 1493
1536 1535 1534 1533 1532 1531 1530 1529 1528 1527 1526 1525 1523 1520 1518 1516 1514 1512 1510 1509 1507 1505 1504 1503 1503 1502 1502 1501 1500 1500 1499 1499 1498 1498 1498 1497 1496 1496 1495 1494 1494 1493 1492
1537 1536 1535 1534 1533 1533 1532 1531 1530 1529 1528 1527 1525 1523 1521 1519 1517 1515 1513 1511 1510 1509 1508 1507 1506 1505 1504 1504 1503 1502 1501 1500 1499 1499 1498 1497 1496 1496 1495 1494 1493 1492 1491
1537 1536 1535 1535 1535 1534 1534 1533 1532 1531 1530 1529 1527 1525 1524 1522 1520 1517 1515 1514 1513 1512 1511 1510 1509 1508 1506 1505 1504 1503 1502 1501 1500 1499 1498 1497 1496 1495 1494 1493 1492 1491 1490
1537 1536 1536 1536 1536 1535 1535 1534 1534 1533 1532 1530 1528 1527 1525 1523 1521 1519 1518 1516 1515 1514 1513 1512 1510 1509 1508 1506 1505 1504 1503 1501 1500 1499 1498 1497 1496 1495 1494 1493 1492 1491 1489
1538 1537 1537 1537 1536 1536 1536 1535 1534 1534 1533 1531 1530 1528 1526 1525 1523 1521 1520 1518 1517 1516 1514 1513 1512 1510 1509 1507 1506 1504 1503 1502 1500 1499 1498 1497 1496 1495 1494 1493 1491 1490 1489
1537 1537 1537 1536 1536 1536 1536 1535 1535 1534 1533 1532 1531 1529 1528 1526 1524 1522 1521 1519 1518 1517 1515 1514 1512 1511 1509 1508 1506 1505 1504 1502 1501 1499 1498 1497 1496 1495 1494 1493 1491 1490 1489
1537 1536 1536 1536 1536 1536 1536 1535 1535 1534 1533 1532 1531 1530 1528 1527 1525 1523 1522 1520 1519 1517 1516 1515 1513 1512 1510 1509 1507 1506 1504 1503 1501 1500 1499 1498 1497 1495 1494 1493 1492 1490 1489
1536 1535 1535 1535 1535 1535 1535 1535 1534 1534 1533 1532 1531 1530 1528 1527 1526 1524 1523 1521 1520 1518 1517 1516 1515 1513 1512 1510 1509 1507 1506 1504 1502 1501 1500 1499 1497 1496 1495 1494 1492 1491 1490
1534 1534 1534 1533 1533 1533 1534 1534 1534 1533 1532 1531 1530 1529 1528 1527 1525 1524 1523 1522 1521 1520 1518 1517 1516 1514 1513 1512 1510 1509 1507 1505 1504 1502 1501 1500 1499 1497 1496 1495 1494 1493 1491